EUTELSAT HOT BIRD 13E

Last updated on Nov. 15, 2019, 4:20 a.m. UTC

1 28946U 06007B   19318.77361891  .00000101  00000-0  00000+0 0  9997
2 28946   0.0572 120.9038 0007081 110.8076 113.4111  1.00273583 50160
UTC
Height (km)
Latitude
Longitude
Inclination
Orbital Period
UTC large
Height (km)
Speed (km/s)
/
Latitude / Longitude
Inclination (degrees)
Orbital Period (minutes)
Azimuth
Elevation
Range (km)
Doppler Factor
iOS Compass Heading
iOS Angle

Next 30 passes for location: Hong Kong

Rise time Rise Azimuth (degrees) Set time Set Azimuth (degrees) Duration Max altitude (degrees)

No matching passes for this satellites